English version Home page |
Updated on April 4, 2021 |
プロフィール
|
軌道要素Epoch 2020 Dec. 17.0 TT = JDT 2459200.5 T 2020 Dec. 5.37895 TT Rudenko q 1.6175448 (2000.0) P Q n 0.17967884 Peri. 155.92042 -0.91885040 -0.39459936 a 3.1103178 Node 0.84881 +0.33215400 -0.77656255 e 0.4799423 Incl. 8.93099 +0.21304381 -0.49116388 P 5.49 From 61 observations 2010 Jan. 22-2021 Jan. 17, mean residual 0".6.
|
光度変化m1 = 17.0 + 5 logΔ + 10.0 log r
|
軌道要素はM.P.E.C. 2021-B143に掲載されたものです。
|